EZY532 EGAC-EGGP

Flight info

Callsign EZY532
Flight time 0h 29m
Altitude 19000
Route DUFFY L15 PEPOD Q38 SOSIM L28 PENIL
Aircraft A320/M-SDE2E3FGHIJ1RWXYZ/LB1

Departure

Time 2026-04-25 10:34
Airport George Best Belfast City Airport (EGAC)

Arrival

Time 2026-04-25 11:03
Airport Liverpool John Lennon Airport (EGGP)
Time Latitude Longitude Altitude Speed Heading
2026-04-25 10:03 54.61499 -5.87144 23 ft 0 kts 156°
2026-04-25 10:26 54.61513 -5.87153 25 ft 3 kts 165°
2026-04-25 10:27 54.61534 -5.87166 26 ft 4 kts 141°
2026-04-25 10:27 54.61543 -5.87195 26 ft 4 kts 64°
2026-04-25 10:27 54.61527 -5.87229 27 ft 4 kts 36°
2026-04-25 10:27 54.61522 -5.87234 28 ft 0 kts 35°
2026-04-25 10:30 54.61528 -5.87228 27 ft 5 kts 35°
2026-04-25 10:30 54.61562 -5.87186 23 ft 6 kts 35°
2026-04-25 10:30 54.61592 -5.87151 25 ft 4 kts 34°
2026-04-25 10:30 54.61613 -5.87125 23 ft 3 kts 34°
2026-04-25 10:31 54.61639 -5.87094 23 ft 12 kts 34°
2026-04-25 10:31 54.61739 -5.86986 23 ft 15 kts
2026-04-25 10:31 54.61809 -5.87107 23 ft 15 kts 300°
2026-04-25 10:31 54.61892 -5.87154 25 ft 14 kts 35°
2026-04-25 10:32 54.61991 -5.87028 23 ft 26 kts 34°
2026-04-25 10:32 54.62166 -5.86821 23 ft 31 kts 34°
2026-04-25 10:32 54.62341 -5.86616 24 ft 30 kts 33°
2026-04-25 10:32 54.62456 -5.86535 24 ft 11 kts
2026-04-25 10:33 54.62472 -5.86456 23 ft 7 kts 151°
2026-04-25 10:33 54.62440 -5.86495 25 ft 5 kts 224°
2026-04-25 10:33 54.62424 -5.86518 24 ft 0 kts 216°
2026-04-25 10:33 54.62409 -5.86537 24 ft 20 kts 216°
2026-04-25 10:34 54.62041 -5.86978 23 ft 104 kts 214°
2026-04-25 10:34 54.61269 -5.87890 43 ft 162 kts 213°
2026-04-25 10:34 54.60342 -5.88980 808 ft 157 kts 214°
2026-04-25 10:34 54.59478 -5.89973 1662 ft 150 kts 212°
2026-04-25 10:35 54.58523 -5.90558 2215 ft 157 kts 179°
2026-04-25 10:35 54.57394 -5.90067 2534 ft 179 kts 158°
2026-04-25 10:35 54.56183 -5.89240 2836 ft 198 kts 159°
2026-04-25 10:35 54.54831 -5.88330 3158 ft 218 kts 159°
2026-04-25 10:36 54.53337 -5.87331 3498 ft 243 kts 159°
2026-04-25 10:36 54.51711 -5.86232 4160 ft 256 kts 155°
2026-04-25 10:36 54.50188 -5.84562 5025 ft 262 kts 146°
2026-04-25 10:36 54.48689 -5.82737 5897 ft 266 kts 145°
2026-04-25 10:37 54.47159 -5.80883 6760 ft 270 kts 145°
2026-04-25 10:37 54.45585 -5.78992 7594 ft 274 kts 146°
2026-04-25 10:37 54.44039 -5.77134 8452 ft 277 kts 146°
2026-04-25 10:37 54.42453 -5.75230 9320 ft 280 kts 146°
2026-04-25 10:38 54.40850 -5.73308 10182 ft 283 kts 146°
2026-04-25 10:38 54.39201 -5.71332 10668 ft 299 kts 146°
2026-04-25 10:38 54.37431 -5.69217 10987 ft 319 kts 146°
2026-04-25 10:38 54.35592 -5.67019 11636 ft 325 kts 146°
2026-04-25 10:39 54.33722 -5.64788 12382 ft 329 kts 146°
2026-04-25 10:39 54.31838 -5.62547 13151 ft 332 kts 146°
2026-04-25 10:39 54.29937 -5.60284 13901 ft 334 kts 146°
2026-04-25 10:39 54.28035 -5.57953 14570 ft 338 kts 141°
2026-04-25 10:40 54.26363 -5.55102 15178 ft 343 kts 130°
2026-04-25 10:40 54.24943 -5.51781 15787 ft 347 kts 127°
2026-04-25 10:40 54.23529 -5.48412 16388 ft 351 kts 127°
2026-04-25 10:40 54.22577 -5.46155 16777 ft 354 kts 128°
2026-04-25 10:41 54.20636 -5.41570 17593 ft 359 kts 128°
2026-04-25 10:41 54.19164 -5.38094 18170 ft 363 kts 128°
2026-04-25 10:41 54.17676 -5.34587 18742 ft 367 kts 128°
2026-04-25 10:41 54.16167 -5.31036 19107 ft 370 kts 128°
2026-04-25 10:42 54.14659 -5.27487 19190 ft 366 kts 128°
2026-04-25 10:42 54.13195 -5.24033 19206 ft 354 kts 128°
2026-04-25 10:42 54.11758 -5.20646 19209 ft 353 kts 128°
2026-04-25 10:42 54.10321 -5.17266 19221 ft 353 kts 128°
2026-04-25 10:43 54.08875 -5.13881 19223 ft 353 kts 128°
2026-04-25 10:43 54.07430 -5.10507 19225 ft 353 kts 128°
2026-04-25 10:43 54.05978 -5.07130 19225 ft 353 kts 128°
2026-04-25 10:43 54.04542 -5.03789 19213 ft 353 kts 128°
2026-04-25 10:44 54.03094 -5.00417 19215 ft 353 kts 128°
2026-04-25 10:44 54.01636 -4.97028 19209 ft 352 kts 128°
2026-04-25 10:44 54.00186 -4.93674 19212 ft 352 kts 128°
2026-04-25 10:44 53.98730 -4.90315 19210 ft 352 kts 128°
2026-04-25 10:45 53.97279 -4.86962 19208 ft 352 kts 128°
2026-04-25 10:45 53.95830 -4.83603 19211 ft 352 kts 128°
2026-04-25 10:45 53.94384 -4.80255 19206 ft 352 kts 128°
2026-04-25 10:45 53.92929 -4.76893 19206 ft 352 kts 128°
2026-04-25 10:46 53.91475 -4.73548 19207 ft 352 kts 128°
2026-04-25 10:46 53.90020 -4.70207 19204 ft 352 kts 128°
2026-04-25 10:46 53.88566 -4.66873 19202 ft 353 kts 129°
2026-04-25 10:46 53.87105 -4.63528 19191 ft 353 kts 129°
2026-04-25 10:47 53.85642 -4.60185 19191 ft 354 kts 129°
2026-04-25 10:47 53.84174 -4.56845 19193 ft 354 kts 129°
2026-04-25 10:47 53.82701 -4.53499 19193 ft 354 kts 129°
2026-04-25 10:47 53.81384 -4.49967 19192 ft 356 kts 118°
2026-04-25 10:48 53.80431 -4.46087 19197 ft 358 kts 113°
2026-04-25 10:48 53.79531 -4.42171 19207 ft 363 kts 113°
2026-04-25 10:48 53.78594 -4.38134 19211 ft 370 kts 113°
2026-04-25 10:48 53.77674 -4.34172 18671 ft 360 kts 113°
2026-04-25 10:49 53.76759 -4.30247 17848 ft 356 kts 113°
2026-04-25 10:49 53.76159 -4.27680 17388 ft 352 kts 113°
2026-04-25 10:49 53.74971 -4.22606 16854 ft 346 kts 113°
2026-04-25 10:49 53.74088 -4.18840 16447 ft 343 kts 113°
2026-04-25 10:50 53.73207 -4.15099 16037 ft 341 kts 113°
2026-04-25 10:50 53.72335 -4.11402 15660 ft 339 kts 113°
2026-04-25 10:50 53.71459 -4.07699 15260 ft 337 kts 113°
2026-04-25 10:50 53.70592 -4.04041 14887 ft 335 kts 113°
2026-04-25 10:51 53.69727 -4.00401 14501 ft 334 kts 113°
2026-04-25 10:51 53.68862 -3.96771 14118 ft 332 kts 113°
2026-04-25 10:51 53.68007 -3.93175 13716 ft 331 kts 113°
2026-04-25 10:51 53.67152 -3.89590 13315 ft 328 kts 113°
2026-04-25 10:52 53.66302 -3.86030 12936 ft 325 kts 113°
2026-04-25 10:52 53.65462 -3.82509 12546 ft 323 kts 113°
2026-04-25 10:52 53.64624 -3.79013 12154 ft 321 kts 113°
2026-04-25 10:52 53.63786 -3.75533 11768 ft 319 kts 113°
2026-04-25 10:53 53.62966 -3.72119 11386 ft 318 kts 113°
2026-04-25 10:53 53.62123 -3.68645 10999 ft 316 kts 116°
2026-04-25 10:53 53.60978 -3.65502 10593 ft 313 kts 130°
2026-04-25 10:53 53.59472 -3.62930 10422 ft 302 kts 137°
2026-04-25 10:54 53.57981 -3.60529 10113 ft 293 kts 136°
2026-04-25 10:54 53.57008 -3.58948 9668 ft 292 kts 136°
2026-04-25 10:54 53.55110 -3.55860 9022 ft 281 kts 136°
2026-04-25 10:54 53.53749 -3.53650 8637 ft 270 kts 136°
2026-04-25 10:55 53.52406 -3.51478 8274 ft 261 kts 136°
2026-04-25 10:55 53.51116 -3.49397 7911 ft 260 kts 136°
2026-04-25 10:55 53.49811 -3.47292 7534 ft 260 kts 136°
2026-04-25 10:55 53.48506 -3.45182 7148 ft 260 kts 136°
2026-04-25 10:56 53.47310 -3.42903 6758 ft 261 kts 130°
2026-04-25 10:56 53.46139 -3.40580 6353 ft 261 kts 130°
2026-04-25 10:56 53.44965 -3.38261 5950 ft 260 kts 131°
2026-04-25 10:56 53.43793 -3.35953 5543 ft 260 kts 131°
2026-04-25 10:57 53.42997 -3.34389 5265 ft 260 kts 131°
2026-04-25 10:57 53.41836 -3.32109 4688 ft 259 kts 131°
2026-04-25 10:57 53.40669 -3.29818 4240 ft 252 kts 130°
2026-04-25 10:57 53.39549 -3.27618 3853 ft 252 kts 130°
2026-04-25 10:58 53.38435 -3.25432 3707 ft 240 kts 130°
2026-04-25 10:58 53.37381 -3.23367 3639 ft 230 kts 130°
2026-04-25 10:58 53.36340 -3.21332 3544 ft 228 kts 130°
2026-04-25 10:58 53.35327 -3.19351 3449 ft 220 kts 130°
2026-04-25 10:59 53.34354 -3.17441 3344 ft 211 kts 130°
2026-04-25 10:59 53.33433 -3.15638 3274 ft 202 kts 130°
2026-04-25 10:59 53.32575 -3.13765 3185 ft 197 kts 118°
2026-04-25 10:59 53.32164 -3.11638 3013 ft 191 kts 95°
2026-04-25 11:00 53.32203 -3.09443 2791 ft 187 kts 84°
2026-04-25 11:00 53.32308 -3.07307 2536 ft 183 kts 85°
2026-04-25 11:00 53.32410 -3.05203 2295 ft 180 kts 86°
2026-04-25 11:00 53.32510 -3.03129 2064 ft 177 kts 86°
2026-04-25 11:01 53.32605 -3.01139 1823 ft 168 kts 86°
2026-04-25 11:01 53.32695 -2.99248 1592 ft 158 kts 86°
2026-04-25 11:01 53.32780 -2.97454 1385 ft 152 kts 86°
2026-04-25 11:01 53.32862 -2.95712 1177 ft 148 kts 86°
2026-04-25 11:02 53.32942 -2.94003 976 ft 147 kts 86°
2026-04-25 11:02 53.33030 -2.92294 772 ft 147 kts 85°
2026-04-25 11:02 53.33106 -2.90592 547 ft 147 kts 86°
2026-04-25 11:02 53.33178 -2.88892 334 ft 146 kts 86°
2026-04-25 11:03 53.33264 -2.87204 184 ft 145 kts 86°
2026-04-25 11:03 53.33339 -2.85555 89 ft 136 kts 87°
2026-04-25 11:03 53.33397 -2.84215 72 ft 91 kts 85°
2026-04-25 11:03 53.33434 -2.83630 76 ft 10 kts 51°
2026-04-25 11:04 53.33502 -2.83625 76 ft 9 kts 353°
2026-04-25 11:04 53.33565 -2.83641 71 ft 9 kts 345°
2026-04-25 11:04 53.33585 -2.83728 72 ft 9 kts 268°
2026-04-25 11:04 53.33584 -2.83795 73 ft 9 kts 268°
2026-04-25 11:05 53.33577 -2.83924 72 ft 7 kts 265°
2026-04-25 11:05 53.33572 -2.84028 71 ft 11 kts 266°
2026-04-25 11:05 53.33567 -2.84144 70 ft 12 kts 266°
2026-04-25 11:05 53.33557 -2.84370 70 ft 26 kts 266°
2026-04-25 11:06 53.33543 -2.84679 80 ft 27 kts 265°
2026-04-25 11:06 53.33529 -2.84982 85 ft 26 kts 266°
2026-04-25 11:06 53.33514 -2.85298 84 ft 27 kts 265°
2026-04-25 11:06 53.33513 -2.85480 89 ft 8 kts 291°
2026-04-25 11:07 53.33549 -2.85509 87 ft 5 kts 355°
2026-04-25 11:07 53.33580 -2.85512 87 ft 4 kts 356°
2026-04-25 11:07 53.33602 -2.85506 88 ft 3 kts 23°
2026-04-25 11:07 53.33612 -2.85489 88 ft 1 kts 52°
2026-04-25 11:08 53.33627 -2.85452 89 ft 4 kts 49°
2026-04-25 11:08 53.33648 -2.85438 86 ft 2 kts
2026-04-25 11:08 53.33660 -2.85439 89 ft 1 kts 356°
2026-04-25 11:08 53.33665 -2.85439 89 ft 0 kts 356°
2026-04-25 11:09 53.33667 -2.85440 89 ft 1 kts 356°
2026-04-25 11:09 53.33668 -2.85440 89 ft 0 kts 356°